GW2484 Weather Reports


Display with metric or nautical units.
time (UTC)temp
F
wind
direction
speed
MPH
gust
MPH
rain 1hr
in
rain 24hr
in
rain mn
in
humidity
%
barometer
mb
20260503012536 72 49 3.0 8.0 0.00 0.00 0.00 32 1019.5
20260503011526 72 310 3.0 10.0 0.00 0.00 0.00 30 1019.6
20260503010654 73 289 1.0 10.0 0.00 0.00 0.00 33 1019.6
20260503010214 73 11 5.0 9.0 0.00 0.00 0.00 35 1019.6
20260503005412 74 32 3.0 7.0 0.00 0.00 0.00 34 1019.6
20260503004552 73 111 2.0 7.0 0.00 0.00 0.00 36 1019.7
20260503003637 72 58 1.0 6.0 0.00 0.00 0.00 31 1019.7
20260503003102 72 63 1.0 6.0 0.00 0.00 0.00 33 1019.8
20260503002457 72 341 2.0 6.0 0.00 0.00 0.00 33 1019.9
20260503001542 72 342 2.0 6.0 0.00 0.00 0.00 34 1020.1
20260503000835 73 320 3.0 11.0 0.00 0.00 0.00 33 1020.1
20260503000248 73 2 3.0 11.0 0.00 0.00 0.00 37 1020.2
20260502235437 72 300 1.0 7.0 0.00 0.00 0.00 31 1020.2
20260502234840 72 246 3.0 9.0 0.00 0.00 0.00 34 1020.3
20260502234140 72 329 5.0 9.0 0.00 0.00 0.00 33 1020.5
20260502233446 71 356 4.0 9.0 0.00 0.00 0.00 32 1020.4
20260502232856 72 347 5.0 12.0 0.00 0.00 0.00 34 1020.4
20260502232151 71 33 2.0 12.0 0.00 0.00 0.00 33 1020.5
20260502231342 72 285 5.0 9.0 0.00 0.00 0.00 37 1020.4
20260502230644 72 262 4.0 8.0 0.00 0.00 0.00 35 1020.6
20260502225943 72 36 1.0 7.0 0.00 0.00 0.00 35 1020.5
20260502225244 71 37 2.0 7.0 0.00 0.00 0.00 34 1020.6
20260502224425 70 58 2.0 6.0 0.00 0.00 0.00 37 1020.7
20260502223723 70 20 1.0 13.0 0.00 0.00 0.00 33 1020.8
20260502223132 71 216 3.0 13.0 0.00 0.00 0.00 34 1020.8
20260502222540 71 316 4.0 10.0 0.00 0.00 0.00 34 1020.9
20260502221843 71 319 2.0 9.0 0.00 0.00 0.00 38 1020.9
20260502221028 71 270 4.0 9.0 0.00 0.00 0.00 35 1020.9
20260502220544 70 350 1.0 10.0 0.00 0.00 0.00 38 1021.0
20260502215848 71 315 2.0 10.0 0.00 0.00 0.00 37 1021.1
20260502215149 71 327 3.0 7.0 0.00 0.00 0.00 40 1021.1
20260502214557 70 322 2.0 9.0 0.00 0.00 0.00 35 1021.1
20260502213857 71 40 3.0 9.0 0.00 0.00 0.00 39 1021.1
20260502213158 70 43 2.0 9.0 0.00 0.00 0.00 41 1021.0
20260502212457 70 303 3.0 9.0 0.00 0.00 0.00 39 1021.1
20260502212015 71 356 3.0 7.0 0.00 0.00 0.00 39 1021.1
20260502211426 70 358 1.0 8.0 0.00 0.00 0.00 40 1021.1
20260502210726 70 33 4.0 8.0 0.00 0.00 0.00 41 1021.2
20260502210136 70 31 3.0 8.0 0.00 0.00 0.00 41 1021.3
20260502205436 69 223 2.0 8.0 0.00 0.00 0.00 43 1021.3
20260502204736 69 322 1.0 7.0 0.00 0.00 0.00 42 1021.4
20260502203926 69 296 3.0 9.0 0.00 0.00 0.00 41 1021.3
20260502203336 69 13 4.0 8.0 0.00 0.00 0.00 41 1021.4
20260502202745 70 88 2.0 9.0 0.00 0.00 0.00 43 1021.4
20260502202044 69 52 4.0 10.0 0.00 0.00 0.00 46 1021.5
20260502201456 69 319 4.0 10.0 0.00 0.00 0.00 41 1021.6
20260502200755 69 40 4.0 10.0 0.00 0.00 0.00 43 1021.6
20260502200201 69 302 4.0 10.0 0.00 0.00 0.00 43 1021.6
20260502195346 69 303 2.0 10.0 0.00 0.00 0.00 44 1021.7
20260502194647 69 356 3.0 10.0 0.00 0.00 0.00 44 1021.8
20260502193952 69 303 2.0 9.0 0.00 0.00 0.00 44 1021.8
20260502193143 68 24 5.0 9.0 0.00 0.00 0.00 47 1021.8
20260502192217 69 262 2.0 9.0 0.00 0.00 0.00 43 1021.9
20260502191533 68 360 1.0 9.0 0.00 0.00 0.00 43 1021.9
20260502190810 68 306 1.0 10.0 0.00 0.00 0.00 44 1022.0
20260502190229 68 317 3.0 10.0 0.00 0.00 0.00 43 1022.1
20260502185639 68 322 3.0 7.0 0.00 0.00 0.00 44 1022.0
20260502184936 68 299 2.0 6.0 0.00 0.00 0.00 45 1022.2
20260502184234 68 42 1.0 9.0 0.00 0.00 0.00 51 1022.2
20260502183531 68 304 2.0 9.0 0.00 0.00 0.00 44 1022.2
20260502182836 68 320 4.0 8.0 0.00 0.00 0.00 45 1022.2
20260502182026 68 331 1.0 9.0 0.00 0.00 0.00 49 1022.2
20260502181552 67 317 4.0 9.0 0.00 0.00 0.00 44 1022.3
20260502180847 67 331 1.0 10.0 0.00 0.00 0.00 47 1022.3
20260502180255 67 319 5.0 10.0 0.00 0.00 0.00 44 1022.2
20260502170106 66 33 3.0 8.0 0.00 0.00 0.00 50 1022.0
20260502163918 65 20 3.0 8.0 0.00 0.00 0.00 46 1022.1
20260502163329 64 8 2.0 10.0 0.00 0.00 0.00 49 1022.1
20260502162628 64 337 4.0 10.0 0.00 0.00 0.00 50 1022.1
20260502162040 64 304 5.0 10.0 0.00 0.00 0.00 48 1022.2
20260502161118 64 325 4.0 11.0 0.00 0.00 0.00 48 1022.2
20260502160527 63 43 4.0 11.0 0.00 0.00 0.00 50 1022.3
20260502151949 62 49 1.0 8.0 0.00 0.00 0.00 57 1022.2
20260502151358 62 330 1.0 8.0 0.00 0.00 0.00 57 1022.2
20260502150704 61 319 3.0 7.0 0.00 0.00 0.00 58 1022.1
20260502150113 61 326 3.0 9.0 0.00 0.00 0.00 58 1022.1
20260502130418 51 233 0.0 0.0 0.00 0.00 0.00 79 1021.0
20260502123717 51 233 0.0 0.0 0.00 0.00 0.00 78 1020.8
20260502123033 51 233 0.0 0.0 0.00 0.00 0.00 78 1020.7
20260502122308 51 233 0.0 0.0 0.00 0.00 0.00 78 1020.6
20260502121714 51 233 0.0 0.0 0.00 0.00 0.00 77 1020.4
20260502121125 51 233 0.0 1.0 0.00 0.00 0.00 77 1020.4
20260502120639 51 233 0.0 3.0 0.00 0.00 0.00 77 1020.3
20260502115830 51 233 1.0 3.0 0.00 0.00 0.00 77 1020.2
20260502115128 51 344 0.0 1.0 0.00 0.00 0.00 76 1020.1
20260502114551 51 171 0.0 0.0 0.00 0.00 0.00 76 1020.2
20260502113729 51 171 0.0 2.0 0.00 0.00 0.00 76 1020.2
20260502113010 52 171 0.0 2.0 0.00 0.00 0.00 76 1020.1
20260502112506 52 171 0.0 1.0 0.00 0.00 0.00 75 1020.1
20260502112006 52 297 0.0 1.0 0.00 0.00 0.00 74 1020.1
20260502111508 52 304 0.0 2.0 0.00 0.00 0.00 73 1020.2
20260502111008 52 304 0.0 2.0 0.00 0.00 0.00 72 1020.1
20260502110508 53 304 0.0 2.0 0.00 0.00 0.00 71 1020.1
20260502110033 53 304 0.0 2.0 0.00 0.00 0.00 71 1020.0
20260502105507 53 304 1.0 2.0 0.00 0.00 0.00 71 1020.1
20260502105006 53 304 0.0 2.0 0.00 0.00 0.00 71 1020.1
20260502104525 53 306 0.0 2.0 0.00 0.00 0.00 70 1019.9
20260502104006 53 306 0.0 2.0 0.00 0.00 0.00 70 1019.9
20260502103503 53 306 1.0 2.0 0.00 0.00 0.00 70 1020.0
20260502103026 53 324 0.0 2.0 0.00 0.00 0.00 70 1020.1
20260502102508 54 324 0.0 2.0 0.00 0.00 0.00 69 1020.1
20260502102010 54 320 0.0 3.0 0.00 0.00 0.00 69 1020.1
20260502101524 54 320 0.0 3.0 0.00 0.00 0.00 68 1020.1
20260502101003 54 321 0.0 3.0 0.00 0.00 0.00 68 1020.2
20260502100510 54 317 1.0 3.0 0.00 0.00 0.00 68 1020.1
20260502091512 53 316 1.0 4.0 0.00 0.00 0.00 66 1020.1
20260502091007 53 314 1.0 3.0 0.00 0.00 0.00 67 1020.0
20260502090511 53 339 0.0 3.0 0.00 0.00 0.00 67 1019.9
20260502071528 49 53 0.0 0.0 0.00 0.00 0.00 80 1019.0
20260502071013 49 53 0.0 0.0 0.00 0.00 0.00 80 1019.1
20260502070510 49 53 0.0 0.0 0.00 0.00 0.00 81 1019.2
20260502070039 49 53 0.0 0.0 0.00 0.00 0.00 81 1019.0
20260502065512 48 53 0.0 0.0 0.00 0.00 0.00 80 1019.2
20260502065008 48 52 0.0 0.0 0.00 0.00 0.00 80 1019.2
20260502064527 48 53 0.0 0.0 0.00 0.00 0.00 80 1019.2
20260502064003 48 53 0.0 0.0 0.00 0.00 0.00 80 1019.3
20260502063504 48 53 0.0 0.0 0.00 0.00 0.00 79 1019.3
20260502063015 48 53 0.0 0.0 0.00 0.00 0.00 79 1019.3
20260502062504 48 53 0.0 0.0 0.00 0.00 0.00 78 1019.2
20260502062006 48 53 0.0 0.0 0.00 0.00 0.00 78 1019.2
20260502061505 48 53 0.0 0.0 0.00 0.00 0.00 78 1019.2
20260502061008 48 53 0.0 0.0 0.00 0.00 0.00 77 1019.2
20260502060503 48 53 0.0 0.0 0.00 0.00 0.00 76 1019.1
20260502060004 49 53 0.0 0.0 0.00 0.00 0.00 76 1019.1
20260502055507 49 53 0.0 0.0 0.00 0.00 0.00 76 1019.1
20260502055003 49 53 0.0 0.0 0.00 0.00 0.00 75 1019.1
20260502054526 49 53 0.0 0.0 0.00 0.00 0.00 74 1019.1
20260502054006 49 53 0.0 0.0 0.00 0.00 0.00 74 1019.1
20260502053504 49 53 0.0 0.0 0.00 0.00 0.00 74 1019.1
20260502053012 50 53 0.0 0.0 0.00 0.00 0.00 73 1019.1
20260502052503 50 53 0.0 0.0 0.00 0.00 0.00 72 1019.1
20260502052006 50 53 0.0 0.0 0.00 0.00 0.00 72 1019.0
20260502051511 50 53 0.0 0.0 0.00 0.00 0.00 72 1018.9
20260502051005 50 53 0.0 0.0 0.00 0.00 0.00 71 1019.0
20260502050510 50 53 0.0 0.0 0.00 0.00 0.00 71 1019.1
20260502050016 51 53 0.0 0.0 0.00 0.00 0.00 70 1019.1
20260502045504 51 53 0.0 0.0 0.00 0.00 0.00 70 1019.1
20260502045006 51 53 0.0 0.0 0.00 0.00 0.00 70 1019.2
20260502044513 51 53 0.0 0.0 0.00 0.00 0.00 70 1019.2
20260502044005 51 53 0.0 0.0 0.00 0.00 0.00 69 1019.2
20260502043504 51 53 0.0 0.0 0.00 0.00 0.00 69 1019.2
20260502043008 52 53 0.0 0.0 0.00 0.00 0.00 68 1019.2
20260502042506 52 53 0.0 0.0 0.00 0.00 0.00 68 1019.2
20260502042006 52 52 0.0 0.0 0.00 0.00 0.00 67 1019.2
20260502041503 52 53 0.0 0.0 0.00 0.00 0.00 66 1019.3
20260502041006 52 53 0.0 0.0 0.00 0.00 0.00 66 1019.4
20260502040503 53 53 0.0 0.0 0.00 0.00 0.00 65 1019.4
20260502040015 53 53 0.0 0.0 0.00 0.00 0.00 64 1019.4
20260502035507 53 53 0.0 0.0 0.00 0.00 0.00 65 1019.4
20260502035005 53 53 0.0 0.0 0.00 0.00 0.00 64 1019.4
20260502034521 53 53 0.0 0.0 0.00 0.00 0.00 64 1019.4
20260502034010 53 53 0.0 0.0 0.00 0.00 0.00 64 1019.4
20260502033503 54 53 0.0 0.0 0.00 0.00 0.00 63 1019.4
20260502033014 54 52 0.0 0.0 0.00 0.00 0.00 62 1019.4
20260502032503 54 53 0.0 0.0 0.00 0.00 0.00 61 1019.4
20260502032007 54 53 0.0 0.0 0.00 0.00 0.00 61 1019.4
20260502031516 55 53 0.0 0.0 0.00 0.00 0.00 61 1019.4